When you browse on this site, cookies collect data to enhance your experience and personalize the content and advertising you see.
Visit our Privacy Policy to learn more. By continuing to use the site, you agree to this use of cookies and data.
  • In Latvia
  • List of Countries
  • For 7 days
  • Water Temperature
  • Weather Map
  • Weather Widgets
  • user-avatar
    Login

    Hourly Weather Komorow

    Today, 22 October, Tuesday

    Time Temperature Precipitation Wind Pressure Humidity
    00:00 +16°C° 0 mm 2 mps 751 mmHg 77%
    01:00 +15°C° 0 mm 2 mps 751 mmHg 77%
    02:00 +15°C° 0 mm 2 mps 751 mmHg 80%
    03:00 +14°C° 0 mm 1 mps 751 mmHg 83%
    04:00 +14°C° 0 mm 1 mps 751 mmHg 86%
    05:00 +14°C° 0 mm 1 mps 751 mmHg 87%
    06:00 +14°C° 0 mm 1 mps 751 mmHg 89%
    07:00 +14°C° 0 mm 1 mps 752 mmHg 86%
    08:00 +15°C° 0 mm 1 mps 752 mmHg 80%
    09:00 +17°C° 0 mm 2 mps 752 mmHg 74%
    10:00 +18°C° 0 mm 2 mps 752 mmHg 68%
    11:00 +20°C° 0 mm 1 mps 752 mmHg 65%
    12:00 +21°C° 0 mm 1 mps 752 mmHg 61%
    13:00 +22°C° 0 mm 1 mps 752 mmHg 58%
    14:00 +21°C° 0 mm 1 mps 751 mmHg 61%
    15:00 +20°C° 0 mm 1 mps 751 mmHg 64%
    16:00 +20°C° 0 mm 1 mps 751 mmHg 67%
    17:00 +19°C° 0 mm 1 mps 751 mmHg 70%
    18:00 +18°C° 0 mm 1 mps 751 mmHg 73%
    19:00 +16°C° 0 mm 1 mps 752 mmHg 76%
    20:00 +16°C° 0 mm 1 mps 752 mmHg 78%
    21:00 +15°C° 0 mm 1 mps 752 mmHg 79%
    22:00 +14°C° 0 mm 0 mps 752 mmHg 80%
    23:00 +15°C° 0 mm 1 mps 752 mmHg 81%

    Tomorrow, 23 October, Wednesday

    Time Temperature Precipitation Wind Pressure Humidity
    00:00 +14°C° 0 mm 1 mps 752 mmHg 83%
    01:00 +14°C° 0 mm 1 mps 752 mmHg 84%
    02:00 +13°C° 0 mm 1 mps 751 mmHg 86%
    03:00 +13°C° 0 mm 1 mps 751 mmHg 87%
    04:00 +13°C° 0 mm 1 mps 751 mmHg 89%
    05:00 +13°C° 0 mm 1 mps 751 mmHg 89%
    06:00 +13°C° 0 mm 1 mps 751 mmHg 90%
    07:00 +13°C° 0 mm 1 mps 751 mmHg 90%
    08:00 +14°C° 0 mm 1 mps 751 mmHg 82%
    09:00 +16°C° 0 mm 1 mps 751 mmHg 75%
    10:00 +19°C° 0 mm 1 mps 751 mmHg 67%
    11:00 +19°C° 0 mm 1 mps 751 mmHg 64%
    12:00 +20°C° 0 mm 1 mps 751 mmHg 60%
    13:00 +21°C° 0 mm 1 mps 750 mmHg 57%
    14:00 +21°C° 0 mm 1 mps 750 mmHg 60%
    15:00 +19°C° 0 mm 2 mps 750 mmHg 64%
    16:00 +18°C° 0 mm 2 mps 749 mmHg 67%
    17:00 +17°C° 0 mm 2 mps 749 mmHg 71%
    18:00 +16°C° 0 mm 2 mps 749 mmHg 76%
    19:00 +14°C° 0 mm 3 mps 749 mmHg 80%
    20:00 +15°C° 0 mm 2 mps 749 mmHg 83%
    21:00 +15°C° 0 mm 2 mps 749 mmHg 85%
    22:00 +14°C° 0 mm 2 mps 748 mmHg 87%
    23:00 +14°C° 0 mm 2 mps 748 mmHg 88%

    Day after tomorrow, 24 October, Thursday

    Time Temperature Precipitation Wind Pressure Humidity
    00:00 +14°C° 0 mm 2 mps 748 mmHg 89%
    01:00 +14°C° 0 mm 2 mps 748 mmHg 90%
    02:00 +12°C° 0 mm 3 mps 747 mmHg 90%
    03:00 +12°C° 0 mm 3 mps 747 mmHg 91%
    04:00 +12°C° 0 mm 3 mps 746 mmHg 91%
    05:00 +12°C° 0 mm 3 mps 746 mmHg 91%
    06:00 +11°C° 0 mm 3 mps 746 mmHg 92%
    07:00 +11°C° 0 mm 3 mps 745 mmHg 92%
    08:00 +13°C° 0 mm 3 mps 745 mmHg 83%
    09:00 +16°C° 0 mm 3 mps 745 mmHg 74%
    10:00 +18°C° 0 mm 3 mps 745 mmHg 66%
    11:00 +19°C° 0 mm 3 mps 745 mmHg 61%
    12:00 +20°C° 0 mm 3 mps 744 mmHg 56%
    13:00 +22°C° 0 mm 3 mps 744 mmHg 51%
    14:00 +21°C° 0 mm 3 mps 744 mmHg 56%
    15:00 +20°C° 0 mm 3 mps 743 mmHg 60%
    16:00 +19°C° 0 mm 3 mps 743 mmHg 65%
    17:00 +18°C° 0 mm 2 mps 743 mmHg 66%
    18:00 +17°C° 0 mm 2 mps 743 mmHg 66%
    19:00 +16°C° 0 mm 2 mps 743 mmHg 67%
    20:00 +16°C° 0 mm 2 mps 743 mmHg 66%
    21:00 +16°C° 0 mm 2 mps 744 mmHg 65%
    22:00 +16°C° 0 mm 2 mps 744 mmHg 64%
    23:00 +15°C° 0 mm 2 mps 744 mmHg 63%

    25 October, Friday

    Time Temperature Precipitation Wind Pressure Humidity
    00:00 +14°C° 0 mm 3 mps 744 mmHg 63%
    01:00 +14°C° 0 mm 3 mps 744 mmHg 63%
    02:00 +14°C° 0 mm 3 mps 745 mmHg 64%
    03:00 +13°C° 0 mm 3 mps 745 mmHg 66%
    04:00 +13°C° 0 mm 4 mps 745 mmHg 68%
    05:00 +13°C° 0 mm 4 mps 746 mmHg 75%
    06:00 +12°C° 0 mm 4 mps 746 mmHg 81%
    07:00 +12°C° 0 mm 4 mps 747 mmHg 88%
    08:00 +13°C° 0 mm 5 mps 747 mmHg 82%
    09:00 +15°C° 0 mm 5 mps 748 mmHg 76%
    10:00 +16°C° 0 mm 6 mps 748 mmHg 71%
    11:00 +17°C° 0 mm 6 mps 749 mmHg 67%
    12:00 +17°C° 0 mm 6 mps 749 mmHg 63%
    13:00 +19°C° 0 mm 6 mps 749 mmHg 59%
    14:00 +17°C° 0 mm 5 mps 750 mmHg 62%
    15:00 +17°C° 0 mm 4 mps 750 mmHg 65%
    16:00 +17°C° 0 mm 3 mps 750 mmHg 68%
    17:00 +16°C° 0 mm 3 mps 750 mmHg 71%
    18:00 +15°C° 0 mm 2 mps 751 mmHg 74%
    19:00 +14°C° 0 mm 2 mps 751 mmHg 77%
    20:00 +13°C° 0 mm 1 mps 751 mmHg 78%
    21:00 +13°C° 0 mm 1 mps 751 mmHg 79%
    22:00 +12°C° 0 mm 1 mps 751 mmHg 80%
    23:00 +12°C° 0 mm 1 mps 751 mmHg 81%

    26 October, Saturday

    Time Temperature Precipitation Wind Pressure Humidity
    00:00 +12°C° 0 mm 1 mps 750 mmHg 82%
    01:00 +12°C° 0 mm 2 mps 750 mmHg 82%
    02:00 +12°C° 0 mm 2 mps 750 mmHg 84%
    03:00 +10°C° 0 mm 2 mps 749 mmHg 86%
    04:00 +10°C° 0 mm 3 mps 749 mmHg 88%
    05:00 +10°C° 0 mm 3 mps 748 mmHg 88%
    06:00 +11°C° 0 mm 4 mps 748 mmHg 88%
    07:00 +10°C° 0 mm 5 mps 748 mmHg 88%
    08:00 +13°C° 0 mm 5 mps 747 mmHg 79%
    09:00 +15°C° 0 mm 6 mps 747 mmHg 69%
    10:00 +17°C° 0 mm 7 mps 747 mmHg 60%
    11:00 +18°C° 0 mm 7 mps 746 mmHg 57%
    12:00 +18°C° 0 mm 7 mps 746 mmHg 54%
    13:00 +20°C° 0 mm 7 mps 745 mmHg 50%
    14:00 +19°C° 0 mm 6 mps 745 mmHg 54%
    15:00 +17°C° 0 mm 5 mps 745 mmHg 58%
    16:00 +17°C° 0 mm 4 mps 745 mmHg 61%
    17:00 +17°C° 0 mm 4 mps 745 mmHg 63%
    18:00 +15°C° 0 mm 4 mps 745 mmHg 65%
    19:00 +14°C° 0 mm 4 mps 745 mmHg 68%
    20:00 +14°C° 0 mm 4 mps 745 mmHg 68%
    21:00 +14°C° 0 mm 5 mps 745 mmHg 69%
    22:00 +14°C° 0 mm 5 mps 745 mmHg 70%
    23:00 +13°C° 0 mm 5 mps 745 mmHg 72%

    27 October, Sunday

    Time Temperature Precipitation Wind Pressure Humidity
    00:00 +13°C° 0 mm 5 mps 745 mmHg 73%
    01:00 +12°C° 0 mm 5 mps 746 mmHg 75%
    02:00 +10°C° 0 mm 6 mps 746 mmHg 74%
    03:00 +9°C° 0 mm 6 mps 746 mmHg 73%
    04:00 +9°C° 0 mm 6 mps 747 mmHg 72%
    05:00 +8°C° 0.1 mm 6 mps 747 mmHg 70%
    06:00 +7°C° 0.1 mm 6 mps 747 mmHg 69%
    07:00 +5°C° 0.1 mm 6 mps 748 mmHg 67%
    08:00 +7°C° 0 mm 6 mps 748 mmHg 61%
    09:00 +6°C° 0 mm 7 mps 748 mmHg 55%
    10:00 +8°C° 0 mm 7 mps 749 mmHg 50%
    11:00 +7°C° 0 mm 8 mps 749 mmHg 48%
    12:00 +9°C° 0 mm 8 mps 749 mmHg 47%
    13:00 +9°C° 0 mm 8 mps 749 mmHg 45%
    14:00 +9°C° 0 mm 8 mps 749 mmHg 49%
    15:00 +8°C° 0 mm 7 mps 749 mmHg 54%
    16:00 +8°C° 0 mm 6 mps 749 mmHg 58%
    17:00 +8°C° 0 mm 6 mps 749 mmHg 58%
    18:00 +8°C° 0 mm 6 mps 749 mmHg 59%
    19:00 +8°C° 0 mm 6 mps 750 mmHg 59%
    20:00 +7°C° 0 mm 6 mps 750 mmHg 62%
    21:00 +7°C° 0 mm 6 mps 750 mmHg 64%
    22:00 +5°C° 0 mm 6 mps 750 mmHg 67%
    23:00 +5°C° 0 mm 6 mps 750 mmHg 69%

    28 October, Monday

    Time Temperature Precipitation Wind Pressure Humidity
    00:00 +5°C° 0 mm 6 mps 749 mmHg 70%
    01:00 +4°C° 0 mm 6 mps 749 mmHg 72%
    02:00 +4°C° 0 mm 6 mps 749 mmHg 76%
    03:00 +5°C° 0 mm 5 mps 749 mmHg 79%
    04:00 +3°C° 0 mm 5 mps 749 mmHg 82%
    05:00 +3°C° 0 mm 5 mps 748 mmHg 83%
    06:00 +3°C° 0 mm 5 mps 748 mmHg 84%
    07:00 +3°C° 0 mm 5 mps 748 mmHg 85%
    08:00 +5°C° 0 mm 5 mps 748 mmHg 80%
    09:00 +6°C° 0 mm 5 mps 748 mmHg 74%
    10:00 +7°C° 0 mm 6 mps 748 mmHg 69%
    11:00 +7°C° 0.1 mm 6 mps 747 mmHg 66%
    12:00 +8°C° 0.1 mm 6 mps 747 mmHg 63%
    13:00 +8°C° 0.1 mm 6 mps 747 mmHg 61%
    14:00 +8°C° 0.1 mm 6 mps 747 mmHg 61%
    15:00 +8°C° 0.1 mm 6 mps 747 mmHg 61%
    16:00 +7°C° 0.1 mm 5 mps 746 mmHg 61%
    17:00 +7°C° 0.1 mm 5 mps 746 mmHg 64%
    18:00 +6°C° 0.1 mm 4 mps 747 mmHg 67%
    19:00 +6°C° 0.1 mm 4 mps 747 mmHg 69%
    20:00 +5°C° 0 mm 4 mps 747 mmHg 71%
    21:00 +5°C° 0 mm 4 mps 747 mmHg 73%
    22:00 +4°C° 0 mm 4 mps 747 mmHg 75%
    23:00 +4°C° 0 mm 4 mps 747 mmHg 76%
    Show more